sat.trackr.live / text

‹ back to catalog

STARLINK-4341

NORAD 53052 · 2022-077K

PAYLOAD ACTIVE UNKNOWN

§ Identity

Operator
Country
US
Launch date
2022-07-11
Launch site
AFWTR
Launch vehicle
Mass (kg)
RCS (m²)

Purposes: comms

External: N2YO · Heavens-Above · Gunter

§ Orbital elements

Epoch: 2026-09-19T22:52:11.772192Z

Period
93.91 min
Inclination
97.2836°
Eccentricity
0.0001440
Mean motion
15.33436092 rev/d
Perigee alt
464.6 km
Apogee alt
466.6 km
Semi-major
6,843.7 km
B*
3.6614e-5
RAAN
77.7557°
Arg perigee
98.5295°
Mean anomaly
261.6111°
Rev number
23,020

§ Raw data

STARLINK-43411 53052U 22077K   26262.95291403  .00001107  00000+0  36614-4 0  99962 53052  97.2836  77.7557 0001440  98.5295 261.6111 15.33436092230208

JSON: /api/v1/satellites/53052 · /tle

For live sub-satellite position, see the globe view (requires WebGL).

§ Visibility from observer

Set your observer location to see the next 7 days of passes ≥ 10°. The values pass through the URL so the page stays shareable.

No JS? Fill the form by hand. The geolocation button needs JavaScript.